Location: Cambier River Bend Area
(42.8000°N, 93.6391°W)
Time: 20:35:27
(UTC+00:00)

BlueWalker 3 - Visible Passes

Search period start: 06 October 2024 00:00
Search period end: 16 October 2024 00:00
Orbit: 473 x 485 km, 53.2° (Epoch: 05 October)

Date Brightness Start Highest point End Pass type
(mag) Time Alt. Az. Time Alt. Az. Time Alt. Az.
06 Oct 1.7 10:50:54 38° WSW 10:52:12 81° NW 10:55:54 10° NE visible
07 Oct 1.8 10:24:09 81° NE 10:24:09 81° NE 10:27:42 10° NE visible
08 Oct 3.5 09:57:16 33° ENE 09:57:16 33° ENE 09:59:27 10° NE visible
08 Oct 3.3 11:31:29 12° WNW 11:34:05 24° NNW 11:37:09 10° NE visible
09 Oct 4.7 09:30:18 16° ENE 09:30:18 16° ENE 09:31:10 10° ENE visible
09 Oct 3.2 11:04:30 21° NW 11:05:44 25° NNW 11:08:53 10° NE visible
10 Oct 3.2 10:37:25 27° NNW 10:37:25 27° NNW 10:40:35 10° NE visible
11 Oct 3.8 10:10:16 23° NNE 10:10:16 23° NNE 10:12:14 10° NE visible
11 Oct 4.0 11:45:27 10° NW 11:47:51 16° N 11:50:15 10° NE visible
12 Oct 4.7 09:43:02 15° NNE 09:43:02 15° NNE 09:43:51 10° NE visible
12 Oct 4.0 11:17:13 11° NW 11:19:22 16° N 11:21:47 10° NE visible
13 Oct 3.9 10:49:56 15° NNW 10:50:50 17° N 10:53:18 10° NE visible
14 Oct 4.1 10:22:36 17° N 10:22:36 17° N 10:24:46 10° NE visible
15 Oct 4.6 09:55:14 14° NNE 09:55:14 14° NNE 09:56:12 10° NE visible
15 Oct 3.9 11:29:56 10° NW 11:32:42 19° NNE 11:35:27 10° ENE visible
